User: anonymous   Login
Location: Unspecified
(0.0000°N, 0.0000°E)
Time: 01:32:26
(UTC+00:00)
Language:

Fuji - Orbit

View from above orbital plane
View from above orbital plane
View from above satellite
View from above satellite

Ground track
Ground track

The orbit data is extracted from the following two-line orbital elements,

1 16909U 86061B   17117.85569539 -.00000090 +00000-0 +50252-4 0  9991
2 16909 050.0162 333.5310 0011057 312.4041 162.1106 12.44466731396539
Epoch (UTC): 27 April 2017 20:32:12
Eccentricity: 0.0011057
inclination: 50.0162°
perigee height: 1479 km
apogee height: 1496 km
right ascension of ascending node: 333.5310°
argument of perigee: 312.4041°
revolutions per day: 12.44466731
mean anomaly at epoch: 162.1106°
orbit number at epoch: 39653

The dashed part of the orbit path shows where the satellite is in the earth's shadow,  

DLR